Temp
-5 -5 -5 -5 -5 -5 -5 -5 -5 -5 -5 -5 -5 -4 -5 -5 -5 -5 -5 -5 -5 -6 -6 -6 -5 -6 -6 -6 -6 -7 -7 -9 -9 -10 -10 -10 -10 -9 -9 -9 -9 -9 -9 -10 -11
-5 -5 -5 -5 -5 -5 -5 -5 -5 -5 -5 -5 -5 -5 -5 -5 -5 -5 -5 -5 -6 -6 -6 -6 -6 -6 -6 -6 -6 -7 -7 -8 -8 -9 -10 -10 -10 -10 -9 -10 -10 -10 -10 -10 -11
-5 -5 -5 -5 -5 -5 -5 -5 -5 -5 -5 -5 -5 -5 -5 -5 -5 -5 -5 -6 -6 -6 -6 -6 -6 -6 -6 -7 -7 -7 -7 -6 -6 -7 -9 -10 -10 -10 -9 -10 -10 -10 -10 -10 -11
-5 -5 -5 -6 -5 -5 -5 -5 -5 -5 -5 -5 -5 -5 -5 -5 -5 -5 -5 -6 -6 -6 -6 -6 -6 -7 -6 -6 -7 -7 -7 -7 -7 -7 -8 -10 -10 -10 -10 -9 -10 -10 -10 -10 -11
-5 -5 -5 -6 -5 -5 -5 -5 -5 -5 -5 -5 -5 -5 -5 -5 -5 -5 -5 -6 -6 -6 -6 -7 -6 -6 -7 -7 -7 -7 -7 -7 -8 -8 -8 -9 -10 -10 -10 -10 -10 -10 -10 -10 -11
-6 -6 -6 -6 -6 -5 -5 -5 -5 -5 -5 -5 -5 -5 -5 -5 -5 -5 -6 -5 -6 -6 -6 -7 -7 -7 -7 -7 -7 -7 -7 -7 -7 -8 -8 -8 -9 -9 -9 -9 -10 -10 -10 -10 -10
-6 -6 -6 -6 -6 -5 -5 -6 -5 -5 -5 -5 -5 -6 -5 -5 -5 -5 -5 -5 -5 -6 -6 -7 -7 -7 -7 -7 -7 -7 -7 -7 -6 -7 -7 -7 -8 -9 -9 -9 -9 -9 -10 -10 -10
-6 -6 -6 -6 -6 -5 -6 -6 -6 -6 -5 -5 -6 -6 -6 -6 -6 -6 -6 -6 -6 -6 -6 -7 -7 -7 -7 -7 -7 -7 -7 -7 -7 -7 -7 -7 -9 -9 -9 -9 -9 -8 -8 -10 -10
-6 -6 -6 -6 -6 -6 -6 -6 -6 -6 -6 -6 -6 -6 -6 -6 -6 -6 -6 -6 -6 -6 -6 -7 -7 -7 -7 -7 -7 -7 -7 -7 -7 -7 -8 -8 -9 -10 -9 -9 -9 -8 -8 -9 -10
-7 -7 -7 -6 -6 -6 -6 -6 -6 -6 -6 -6 -6 -6 -6 -6 -6 -6 -6 -6 -7 -7 -7 -7 -7 -7 -7 -7 -8 -8 -8 -8 -8 -8 -8 -8 -9 -10 -9 -10 -9 -9 -9 -9 -10
-7 -7 -7 -7 -7 -7 -6 -7 -7 -6 -7 -6 -6 -6 -6 -6 -6 -7 -7 -7 -7 -7 -7 -7 -8 -8 -8 -8 -8 -8 -8 -8 -8 -8 -8 -9 -9 -10 -10 -10 -9 -9 -10 -10 -10
-8 -8 -7 -8 -7 -7 -7 -7 -7 -7 -7 -7 -6 -6 -6 -6 -6 -7 -7 -7 -8 -8 -8 -8 -8 -8 -8 -8 -8 -9 -9 -9 -9 -9 -9 -9 -10 -10 -10 -9 -10 -10 -10 -10 -10
-8 -8 -8 -8 -8 -7 -7 -7 -7 -7 -7 -7 -7 -6 -6 -7 -7 -7 -8 -8 -8 -8 -8 -8 -9 -9 -9 -9 -9 -9 -9 -9 -9 -9 -9 -9 -9 -10 -10 -9 -9 -9 -9 -9 -10
-8 -8 -8 -8 -8 -8 -8 -7 -7 -7 -7 -7 -7 -7 -7 -7 -7 -7 -8 -8 -8 -8 -8 -8 -8 -9 -9 -9 -9 -9 -9 -9 -9 -9 -9 -9 -10 -10 -11 -11 -10 -10 -10 -10 -10
-9 -8 -8 -8 -8 -8 -8 -8 -7 -7 -7 -7 -7 -7 -7 -7 -7 -7 -8 -8 -8 -8 -8 -8 -8 -8 -9 -9 -9 -9 -9 -9 -9 -9 -9 -9 -10 -10 -10 -11 -11 -10 -10 -10 -10
-9 -9 -9 -9 -8 -8 -8 -8 -8 -7 -7 -7 -7 -7 -7 -8 -8 -8 -8 -8 -8 -8 -8 -8 -8 -9 -9 -9 -9 -9 -9 -9 -9 -9 -10 -9 -10 -10 -10 -10 -11 -10 -10 -10 -10
-10 -9 -9 -9 -8 -8 -8 -8 -8 -8 -8 -7 -8 -8 -8 -8 -8 -8 -8 -8 -8 -8 -8 -8 -8 -9 -9 -9 -9 -9 -9 -9 -9 -9 -10 -10 -10 -11 -10 -10 -10 -10 -10 -10 -10
-10 -10 -9 -9 -9 -9 -9 -9 -8 -8 -8 -8 -8 -8 -8 -8 -8 -8 -8 -8 -8 -9 -9 -9 -9 -9 -9 -9 -9 -9 -9 -9 -9 -10 -10 -10 -10 -10 -10 -10 -10 -10 -10 -10 -10
-10 -10 -10 -9 -9 -9 -9 -9 -9 -9 -8 -8 -8 -9 -9 -9 -8 -8 -8 -8 -9 -9 -9 -9 -9 -9 -9 -10 -10 -10 -10 -9 -9 -9 -10 -11 -10 -11 -11 -11 -11 -11 -11 -11 -11
-10 -10 -10 -10 -10 -9 -9 -9 -9 -9 -9 -9 -9 -9 -9 -9 -9 -8 -9 -9 -9 -9 -9 -10 -10 -10 -10 -10 -11 -10 -10 -10 -10 -9 -9 -9 -10 -10 -11 -11 -11 -11 -11 -11 -11
-10 -10 -10 -10 -10 -9 -9 -9 -9 -9 -9 -9 -9 -9 -9 -9 -9 -9 -9 -9 -9 -9 -9 -10 -10 -10 -10 -10 -10 -10 -10 -10 -10 -10 -9 -9 -9 -9 -10 -10 -10 -10 -10 -10 -10
-10 -11 -10 -10 -9 -9 -9 -9 -10 -10 -9 -9 -10 -10 -9 -9 -9 -9 -9 -9 -9 -9 -10 -10 -10 -10 -11 -10 -11 -11 -11 -11 -10 -10 -10 -10 -9 -9 -10 -10 -10 -10 -10 -10 -11
-11 -10 -10 -10 -10 -10 -10 -10 -10 -10 -10 -10 -10 -10 -9 -9 -9 -9 -9 -9 -9 -9 -9 -9 -9 -9 -9 -10 -10 -10 -10 -11 -11 -11 -11 -11 -11 -11 -10 -10 -10 -10 -11 -11 -11
-11 -10 -10 -10 -10 -10 -10 -10 -10 -11 -11 -11 -10 -10 -10 -10 -9 -9 -9 -9 -9 -9 -10 -10 -10 -10 -10 -10 -10 -10 -10 -10 -10 -10 -10 -10 -11 -11 -11 -11 -11 -10 -11 -11 -11
-10 -10 -10 -10 -10 -10 -10 -10 -11 -11 -11 -11 -11 -11 -10 -10 -10 -10 -10 -9 -10 -10 -10 -10 -10 -10 -10 -10 -10 -10 -11 -11 -11 -11 -10 -11 -11 -11 -11 -12 -12 -11 -11 -11 -11
-10 -10 -11 -11 -11 -10 -10 -11 -11 -11 -11 -11 -11 -11 -10 -10 -10 -10 -10 -10 -10 -10 -10 -10 -10 -10 -11 -11 -10 -10 -11 -11 -11 -11 -11 -11 -11 -11 -12 -12 -12 -12 -12 -12 -12
-11 -11 -11 -11 -11 -11 -11 -11 -11 -11 -11 -11 -11 -11 -11 -11 -11 -11 -11 -11 -11 -10 -11 -11 -11 -10 -11 -11 -11 -11 -11 -11 -11 -11 -12 -12 -12 -11 -12 -12 -12 -12 -12 -12 -12
Height
5901 5903 5904 5905 5906 5908 5909 5909 5909 5909 5910 5910 5909 5908 5909 5909 5909 5908 5908 5908 5907 5906 5904 5903 5903 5902 5902 5901 5900 5900 5901 5901 5902 5903 5902 5903 5904 5907 5908 5908 5907 5906 5903 5901 5899
5899 5901 5902 5903 5905 5907 5908 5907 5908 5908 5909 5908 5908 5907 5907 5907 5907 5906 5907 5906 5906 5906 5904 5903 5903 5901 5901 5900 5899 5899 5899 5899 5899 5900 5901 5902 5903 5904 5907 5906 5905 5903 5902 5900 5898
5896 5898 5899 5901 5902 5904 5906 5905 5906 5907 5907 5906 5906 5906 5906 5905 5905 5905 5905 5905 5904 5905 5904 5904 5903 5902 5900 5899 5898 5897 5897 5897 5898 5899 5900 5901 5901 5902 5904 5904 5904 5903 5901 5899 5897
5893 5895 5897 5899 5901 5903 5904 5903 5904 5905 5905 5905 5905 5904 5904 5903 5904 5903 5903 5903 5903 5903 5903 5903 5903 5901 5899 5898 5897 5897 5897 5897 5897 5898 5899 5900 5900 5900 5902 5904 5903 5901 5899 5898 5897
5890 5892 5894 5896 5899 5900 5901 5901 5902 5902 5903 5903 5903 5903 5902 5902 5902 5901 5901 5901 5901 5901 5902 5902 5900 5900 5899 5898 5897 5896 5895 5895 5896 5896 5897 5898 5899 5898 5902 5899 5900 5899 5898 5897 5896
5887 5890 5892 5894 5896 5897 5897 5898 5899 5899 5900 5900 5900 5900 5900 5900 5900 5900 5900 5899 5899 5899 5900 5899 5899 5899 5899 5898 5896 5895 5894 5894 5893 5893 5894 5896 5898 5898 5899 5898 5897 5897 5897 5896 5895
5884 5886 5888 5891 5893 5894 5894 5895 5896 5896 5897 5898 5898 5898 5898 5899 5898 5898 5897 5898 5898 5897 5897 5897 5896 5897 5898 5897 5895 5893 5893 5893 5893 5894 5894 5895 5896 5895 5895 5894 5894 5893 5893 5894 5894
5880 5883 5885 5887 5889 5890 5890 5892 5893 5893 5894 5895 5896 5896 5896 5896 5896 5896 5896 5896 5895 5895 5895 5895 5894 5895 5895 5895 5894 5892 5893 5893 5892 5893 5894 5895 5894 5892 5892 5891 5891 5889 5889 5891 5892
5876 5879 5881 5883 5885 5885 5887 5889 5890 5891 5892 5893 5895 5894 5894 5895 5895 5894 5894 5894 5894 5894 5893 5893 5892 5892 5893 5893 5893 5892 5891 5890 5890 5891 5893 5893 5893 5889 5889 5888 5890 5889 5889 5889 5890
5872 5875 5877 5880 5881 5881 5884 5886 5887 5889 5890 5891 5892 5894 5893 5892 5892 5891 5891 5891 5891 5891 5891 5891 5891 5891 5891 5891 5891 5891 5890 5889 5888 5889 5890 5891 5891 5887 5887 5887 5888 5887 5888 5888 5887
5867 5871 5874 5876 5877 5878 5881 5883 5886 5887 5887 5888 5889 5890 5889 5890 5889 5889 5888 5889 5889 5889 5889 5889 5889 5889 5889 5888 5888 5889 5888 5886 5885 5885 5887 5889 5888 5886 5884 5885 5884 5885 5885 5884 5884
5862 5866 5869 5871 5872 5874 5878 5879 5881 5884 5885 5884 5886 5886 5885 5887 5887 5887 5887 5887 5887 5887 5887 5888 5887 5886 5885 5885 5885 5885 5885 5884 5883 5882 5885 5885 5884 5880 5880 5882 5881 5881 5880 5880 5880
5856 5860 5864 5866 5867 5870 5873 5876 5877 5879 5881 5882 5883 5883 5883 5884 5883 5884 5884 5884 5884 5884 5885 5885 5885 5884 5884 5883 5883 5883 5882 5882 5882 5880 5880 5880 5880 5878 5877 5876 5877 5876 5874 5874 5877
5851 5854 5858 5860 5864 5865 5869 5872 5874 5875 5878 5879 5879 5879 5880 5880 5881 5881 5882 5883 5883 5883 5883 5883 5883 5882 5882 5882 5881 5880 5879 5879 5878 5878 5878 5878 5878 5877 5877 5877 5875 5873 5873 5874 5875
5846 5850 5853 5855 5858 5861 5864 5868 5870 5873 5874 5876 5875 5876 5877 5879 5880 5880 5881 5881 5882 5882 5883 5882 5882 5881 5881 5880 5880 5879 5878 5877 5877 5876 5876 5876 5877 5876 5876 5875 5875 5875 5873 5873 5873
5841 5845 5848 5851 5854 5858 5860 5864 5867 5871 5871 5872 5872 5874 5875 5877 5878 5879 5880 5881 5881 5881 5881 5881 5881 5881 5880 5880 5879 5878 5877 5876 5876 5875 5875 5873 5875 5873 5873 5873 5873 5873 5872 5872 5871
5836 5840 5844 5847 5851 5854 5857 5861 5865 5865 5868 5870 5870 5872 5874 5875 5877 5878 5879 5880 5880 5880 5880 5880 5879 5879 5879 5879 5877 5877 5876 5876 5876 5875 5874 5873 5871 5867 5868 5867 5868 5869 5869 5869 5868
5832 5836 5841 5843 5848 5851 5854 5858 5860 5863 5864 5867 5869 5871 5873 5874 5875 5877 5878 5879 5879 5879 5878 5878 5878 5877 5876 5876 5876 5875 5875 5875 5874 5874 5872 5870 5868 5866 5865 5864 5863 5864 5864 5865 5865
5829 5832 5837 5841 5844 5847 5851 5854 5858 5860 5862 5865 5867 5869 5870 5872 5874 5875 5876 5877 5877 5877 5877 5875 5875 5874 5874 5873 5874 5873 5873 5872 5871 5871 5871 5869 5867 5863 5862 5861 5860 5860 5860 5860 5859
5824 5829 5834 5837 5840 5844 5847 5850 5854 5857 5859 5861 5864 5866 5867 5869 5871 5872 5873 5874 5874 5874 5873 5872 5872 5872 5870 5870 5870 5870 5870 5870 5868 5866 5865 5865 5863 5861 5861 5858 5856 5856 5854 5854 5852
5820 5825 5830 5833 5836 5839 5842 5846 5850 5853 5856 5858 5859 5862 5864 5866 5867 5868 5870 5871 5871 5871 5871 5870 5869 5868 5868 5866 5866 5865 5865 5864 5864 5863 5860 5859 5858 5855 5855 5854 5852 5850 5849 5847 5846
5815 5821 5825 5828 5832 5835 5837 5842 5845 5848 5851 5853 5856 5858 5860 5862 5863 5864 5866 5866 5867 5867 5867 5867 5866 5865 5864 5863 5861 5860 5860 5859 5857 5856 5854 5852 5853 5849 5847 5847 5845 5844 5842 5840 5838
5809 5815 5819 5823 5827 5830 5832 5837 5840 5843 5846 5849 5851 5854 5855 5857 5859 5859 5860 5861 5861 5861 5862 5862 5862 5861 5860 5860 5858 5856 5855 5853 5851 5849 5846 5844 5844 5841 5842 5840 5837 5834 5832 5830 5829
5804 5809 5814 5818 5822 5825 5827 5832 5836 5838 5841 5845 5847 5849 5851 5852 5853 5855 5856 5856 5856 5855 5856 5856 5856 5854 5853 5852 5852 5851 5851 5845 5842 5840 5836 5838 5833 5832 5830 5829 5827 5825 5823 5821 5819
5796 5803 5809 5812 5816 5819 5823 5828 5831 5834 5838 5840 5842 5843 5846 5848 5849 5849 5850 5851 5850 5850 5850 5850 5849 5849 5849 5846 5843 5844 5844 5837 5833 5831 5827 5827 5824 5823 5820 5818 5817 5815 5813 5811 5808
5791 5798 5803 5807 5810 5815 5819 5823 5827 5831 5834 5837 5838 5840 5842 5843 5844 5845 5845 5845 5845 5845 5845 5844 5842 5842 5844 5839 5837 5836 5833 5829 5826 5822 5818 5816 5814 5811 5809 5808 5806 5805 5803 5801 5798
5784 5791 5796 5800 5805 5810 5813 5818 5823 5827 5830 5833 5834 5835 5837 5838 5839 5840 5840 5841 5841 5840 5838 5837 5835 5834 5835 5831 5829 5827 5825 5820 5817 5813 5811 5808 5806 5803 5799 5797 5794 5793 5791 5790 5787
Wind_Speed
17 14 12 9 10 11 10 10 10 9 10 12 12 11 10 11 11 12 11 10 8 8 8 9 10 8 7 7 6 5 5 19 21 21 21 19 19 12 12 12 17 20 23 19 13
19 16 13 10 10 12 11 9 10 11 11 11 11 11 11 10 11 12 11 11 9 8 8 9 11 11 8 7 5 5 7 18 20 22 24 22 20 17 14 15 16 22 22 18 11
18 16 14 11 10 12 13 9 11 11 11 12 14 13 12 12 13 13 11 12 11 9 9 9 9 9 7 5 4 5 8 10 12 13 21 23 22 20 16 17 18 24 30 15 12
19 15 16 12 11 12 14 11 13 13 14 14 12 13 12 11 12 11 12 11 11 11 9 9 7 6 4 4 5 5 6 8 11 12 15 24 24 22 20 18 21 24 29 12 6
19 16 15 13 13 17 16 15 16 15 15 14 13 13 12 11 10 9 9 10 11 11 10 8 8 7 5 5 6 7 8 7 9 14 15 20 25 27 21 24 21 24 27 17 7
25 18 16 15 14 18 16 16 16 15 15 14 14 13 12 12 10 10 10 11 12 12 10 10 12 9 9 8 7 9 10 10 11 15 16 14 17 18 18 22 24 23 24 17 10
25 21 20 19 17 17 17 18 17 16 16 15 16 14 13 13 12 10 11 11 11 11 10 11 14 11 9 9 11 13 12 12 12 12 13 13 17 15 16 21 20 15 15 15 5
24 23 21 21 18 18 18 18 16 15 15 15 15 14 13 13 12 12 12 12 11 10 10 11 13 13 12 11 13 15 15 15 15 13 13 11 17 19 20 24 17 13 11 7 6
21 19 20 21 19 18 18 18 16 15 14 14 13 13 13 14 15 15 15 14 14 13 11 11 12 14 14 13 15 16 18 19 18 16 13 12 12 19 18 25 13 7 6 7 8
22 22 23 22 20 18 19 18 16 16 14 14 14 16 17 16 17 17 17 16 16 15 15 13 13 12 14 14 13 15 17 19 21 19 17 15 14 19 20 25 16 15 8 7 10
34 27 25 23 21 20 20 19 18 17 18 19 18 18 19 19 18 17 16 15 14 14 12 12 12 11 12 11 10 11 13 17 21 22 19 16 19 20 22 24 21 18 16 15 12
29 27 27 26 23 23 22 21 20 20 20 19 17 17 21 20 20 18 18 16 16 13 13 11 10 10 10 10 10 9 10 15 21 24 21 19 24 30 29 23 20 21 21 19 13
29 29 28 28 26 25 23 22 21 21 19 18 18 18 20 19 18 17 14 13 12 11 9 7 7 9 10 9 9 9 10 11 13 15 15 13 18 21 20 17 13 14 9 9 2
29 28 27 27 25 25 24 22 21 18 17 18 17 17 16 14 10 7 5 4 5 6 5 5 5 7 6 5 6 7 8 8 9 12 12 8 11 13 10 10 13 9 4 5 2
29 27 25 22 23 21 22 20 18 16 16 16 16 14 13 11 6 4 4 4 4 5 6 6 5 5 5 5 5 6 7 7 9 10 11 9 8 8 11 8 7 6 7 7 9
26 25 22 21 22 20 21 18 16 15 15 14 13 12 10 7 6 5 5 3 4 5 6 7 8 6 6 7 5 6 6 4 6 6 8 10 7 10 12 13 9 9 10 10 12
23 23 21 22 22 21 20 17 15 15 13 11 11 10 8 7 6 5 4 3 4 6 6 6 8 8 8 8 8 7 7 6 6 6 9 8 9 13 13 12 10 9 12 15 15
23 22 21 23 21 22 19 18 16 14 12 11 11 10 9 8 6 5 5 4 5 7 8 7 10 10 10 8 9 11 11 9 6 6 9 11 12 14 16 16 16 11 11 11 11
23 21 22 22 21 21 20 20 16 12 14 14 12 10 11 10 9 8 8 6 5 6 7 8 9 10 9 10 9 8 10 11 12 11 7 10 12 16 18 21 21 21 17 16 18
24 23 23 22 21 21 21 20 17 13 14 17 16 14 13 12 12 12 10 10 9 8 8 8 10 11 14 11 12 11 12 12 14 17 18 14 15 17 17 20 21 21 20 21 19
27 25 24 22 22 22 23 23 21 17 16 20 19 18 17 15 15 15 14 14 13 12 11 11 13 16 17 18 18 19 19 21 22 23 26 26 25 24 21 22 23 23 22 24 23
29 27 24 24 23 24 26 24 23 21 20 21 22 20 19 16 17 16 14 14 14 14 14 15 15 17 19 20 22 22 24 25 28 30 30 32 29 29 31 29 28 29 28 28 28
31 28 25 24 24 25 26 22 20 22 21 21 21 21 20 19 18 17 16 17 18 19 19 20 18 20 21 22 25 26 27 29 31 33 35 38 37 36 33 31 33 34 34 34 33
33 29 26 26 26 27 27 23 21 21 20 19 20 21 21 21 20 18 19 20 20 21 21 20 20 22 24 25 26 27 26 31 33 35 37 36 39 38 38 34 35 37 38 38 37
34 30 28 30 29 28 27 22 20 20 19 19 21 23 22 20 19 19 19 20 21 21 22 23 24 24 24 27 30 29 28 34 38 39 41 38 38 38 38 37 36 38 38 39 40
37 34 32 32 29 29 26 21 19 19 20 19 20 21 19 19 20 20 21 23 23 23 24 25 27 28 25 31 33 32 33 37 39 40 42 42 42 40 40 39 39 38 38 39 40
38 36 35 34 32 30 26 23 19 20 20 20 20 20 20 21 21 21 22 23 24 24 26 28 31 33 31 32 34 36 37 38 37 37 37 36 37 37 39 40 41 40 40 40 40
Wind_Direction
231 229 237 249 265 269 276 286 292 286 284 289 292 296 291 287 288 291 296 301 315 325 327 329 336 331 323 310 305 281 235 217 223 227 250 259 277 293 307 302 307 329 337 336 10
225 230 239 251 261 267 270 280 284 285 283 287 295 296 296 290 287 285 287 291 296 307 312 327 345 352 339 331 324 287 244 219 233 237 242 256 268 288 298 302 311 332 335 328 0
227 232 243 256 256 266 266 273 278 281 286 290 286 289 296 287 280 281 282 285 290 293 302 323 347 0 0 344 316 279 263 273 278 274 243 250 263 278 297 295 299 320 326 324 353
235 235 246 250 255 258 259 262 271 280 283 285 284 286 290 287 278 283 284 282 285 288 294 319 329 324 341 301 293 285 288 293 291 291 276 241 259 270 292 308 299 309 318 325 354
232 232 244 249 252 259 265 272 272 277 276 278 279 279 283 283 291 306 300 285 277 278 286 293 280 287 303 283 276 273 271 244 259 268 271 259 259 269 286 279 285 294 305 321 346
242 241 249 254 251 259 268 267 268 269 270 268 275 274 278 284 289 291 289 284 278 278 279 277 278 280 275 283 271 271 275 263 239 250 264 268 265 279 275 277 285 299 294 302 313
231 243 252 258 253 256 265 263 261 260 260 261 270 271 275 279 283 284 286 283 285 283 277 271 272 276 288 283 281 276 278 280 285 292 302 311 293 291 299 305 319 299 275 280 305
235 241 247 254 251 254 259 257 252 253 254 257 260 267 269 275 283 284 284 285 289 288 281 274 274 279 274 267 269 272 283 286 287 293 311 318 285 294 293 317 312 309 258 207 232
232 240 248 253 253 249 250 249 248 249 253 258 262 264 270 275 281 281 280 281 283 286 285 282 281 278 279 274 276 282 286 287 291 298 305 312 300 280 290 309 317 322 263 229 234
245 247 251 249 244 243 245 245 244 247 253 256 260 266 268 273 277 282 284 284 282 278 280 282 285 291 288 285 282 287 290 295 295 300 303 307 290 271 280 306 315 322 319 298 305
245 241 243 244 243 243 243 241 245 248 256 260 263 266 271 272 272 279 283 282 282 285 285 287 286 284 283 282 286 288 289 290 289 294 300 299 284 277 276 293 300 295 305 308 306
236 240 241 243 243 244 242 243 247 253 256 259 262 265 271 276 277 278 280 283 283 283 284 287 288 281 276 274 267 264 269 278 286 290 300 301 289 283 287 291 282 286 282 280 280
241 243 243 244 242 244 244 247 249 250 255 258 264 268 271 275 277 279 279 280 282 283 291 295 286 281 281 282 284 285 281 284 291 296 301 294 282 285 298 316 320 323 318 261 269
243 244 246 244 243 243 245 245 246 249 251 258 264 267 272 273 274 273 264 267 271 293 310 304 306 302 301 306 310 301 293 302 317 308 319 316 292 292 314 342 341 342 359 0 304
242 240 241 241 240 236 235 235 236 243 254 255 261 262 262 253 243 228 239 254 285 313 313 298 300 324 355 318 314 309 297 296 306 307 312 317 319 290 289 313 318 308 282 274 278
237 239 235 234 234 228 228 229 236 247 257 256 252 245 233 225 235 240 237 266 296 315 317 308 302 314 306 323 318 352 8 1 306 302 306 307 314 293 284 280 292 266 262 255 272
235 237 230 231 230 226 227 232 243 251 250 242 231 218 216 223 233 242 260 280 321 332 341 333 314 316 310 321 324 326 346 339 328 325 309 313 305 279 292 295 288 276 267 264 270
234 233 227 230 227 228 230 235 243 251 242 230 216 215 215 225 237 250 259 289 315 324 320 322 315 327 315 318 321 326 327 330 316 314 288 300 301 305 310 309 310 313 305 293 295
234 229 228 225 227 229 234 238 242 246 238 232 224 225 235 243 248 248 256 266 278 295 308 312 305 311 318 318 319 320 315 311 311 305 296 301 297 292 301 305 306 309 315 306 296
232 228 226 225 226 231 235 242 244 242 239 233 230 226 228 236 252 256 257 262 261 258 269 277 282 288 294 293 305 304 295 294 297 298 295 278 279 279 281 290 295 301 304 300 296
232 228 229 230 232 237 244 247 247 240 235 230 226 224 228 236 248 255 259 260 258 259 259 269 277 278 281 289 292 294 296 297 294 290 292 293 292 292 286 286 292 295 296 297 298
232 230 232 235 239 243 246 248 246 239 234 227 228 231 236 238 242 249 258 264 267 269 269 270 270 267 274 280 283 283 286 288 290 291 291 292 288 290 295 294 292 291 289 289 291
232 230 234 238 239 240 243 242 240 236 232 228 227 230 235 242 250 257 264 269 273 275 274 274 275 277 274 269 271 276 282 285 286 286 288 286 291 287 288 288 289 289 288 288 288
231 229 233 238 234 238 241 238 234 230 227 224 226 231 236 244 255 264 272 278 281 281 283 285 285 282 285 288 288 291 296 292 290 288 285 288 285 288 288 284 282 282 283 284 285
232 229 232 232 231 236 237 234 225 223 223 220 227 235 242 252 259 266 271 274 279 284 288 288 288 288 293 294 295 296 297 291 293 293 291 288 285 287 287 286 282 282 281 281 283
229 231 230 227 230 233 232 227 220 216 222 228 239 248 252 254 257 263 271 278 284 288 290 290 290 291 293 292 291 295 295 294 291 289 290 292 293 291 289 289 287 285 284 282 281
229 231 224 222 226 224 224 222 218 221 226 231 239 244 247 252 259 267 274 281 285 288 291 294 294 295 295 290 292 293 292 289 287 289 290 289 288 288 287 288 288 288 287 286 284